Weather History for Puyallup, WA

Change the Weather History Date:

Wednesday, December 4, 2013

  Actual Average (KTCM) Record (KTCM)
Temperature  
Mean Temperature 27 °F -  
Max Temperature 37 °F 46 °F 59 °F (1989)
Min Temperature 17 °F 33 °F 17 °F (2013)
Degree Days  
Heating Degree Days 38    
Moisture  
Dew Point 22 °F    
Average Humidity 89    
Maximum Humidity 100    
Minimum Humidity 56    
Precipitation  
Precipitation 0.00 in - - ()
Sea Level Pressure  
Sea Level Pressure 30.31 in    
Wind  
Wind Speed 0 mph (North)    
Max Wind Speed 0 mph    
Max Gust Speed -    
Visibility 10 miles    
Events      
Averages and records for this station are not official NWS values.
T = Trace of Precipitation, MM = Missing Value Source: NWS Daily Summary

Daily Weather History Graph

Daily Weather History Graph

Search for Another Location

Airport:

Trip Planner

Search our weather history database for the weather conditions in past years. The results will help you decide how hot, cold, wet, or windy it might be!

Date:

Astronomy

Dec. 04, 2013 Rise Set
Actual Time 7:38 AM PST 4:20 PM PST
Civil Twilight 7:03 AM PST 4:55 PM PST
Nautical Twilight 6:25 AM PST 5:33 PM PST
Astronomical Twilight 5:48 AM PST 6:10 PM PST
Moon 9:08 AM PST (12/4) 6:40 PM PST (12/4)
Length of Visible Light 9h 51m
Length of Day
8h 41m
Waxing Crescent, 5% of the Moon is Illuminated
Dec 4
Waxing Crescent
Dec 9
First Quarter
Dec 17
Full
Dec 25
Last Quarter
Jan 1
New

Hourly Weather History & Observations

Time (PST) Temp. Dew Point Humidity Pressure Visibility Wind Dir Wind Speed Gust Speed Precip Events Conditions
12:15 AM 23.0 °F 23.0 °F 100% 30.29 in 10.0 mi Calm Calm - N/A   Unknown
12:35 AM 24.8 °F 24.8 °F 100% 30.29 in 10.0 mi Calm Calm - N/A   Unknown
12:55 AM 23.0 °F 23.0 °F 100% 30.29 in 10.0 mi Calm Calm - N/A   Unknown
1:15 AM 23.0 °F 23.0 °F 100% 30.29 in 10.0 mi Calm Calm - N/A   Unknown
1:35 AM 21.2 °F 21.2 °F 100% 30.29 in 10.0 mi Calm Calm - N/A   Unknown
1:55 AM 21.2 °F 21.2 °F 100% 30.29 in 10.0 mi Calm Calm - N/A   Unknown
2:15 AM 21.2 °F 21.2 °F 100% 30.29 in 10.0 mi Calm Calm - N/A   Unknown
2:35 AM 19.4 °F 19.4 °F 100% 30.29 in 10.0 mi Calm Calm - N/A   Unknown
2:55 AM 21.2 °F 21.2 °F 100% 30.29 in 10.0 mi Calm Calm - N/A   Unknown
3:15 AM 19.4 °F 19.4 °F 100% 30.29 in 10.0 mi Calm Calm - N/A   Unknown
3:35 AM 19.4 °F 19.4 °F 100% 30.29 in 10.0 mi Calm Calm - N/A   Unknown
3:55 AM 19.4 °F 19.4 °F 100% 30.29 in 10.0 mi Calm Calm - N/A   Unknown
4:15 AM 19.4 °F 19.4 °F 100% 30.29 in 10.0 mi Calm Calm - N/A   Unknown
4:35 AM 19.4 °F 19.4 °F 100% 30.29 in 10.0 mi Calm Calm - N/A   Unknown
4:55 AM 21.2 °F 21.2 °F 100% 30.29 in 10.0 mi Calm Calm - N/A   Unknown
5:15 AM 19.4 °F 19.4 °F 100% 30.29 in 10.0 mi Calm Calm - N/A   Unknown
5:35 AM 19.4 °F 19.4 °F 100% 30.29 in 10.0 mi Calm Calm - N/A   Unknown
5:55 AM 19.4 °F 19.4 °F 100% 30.30 in 10.0 mi Calm Calm - N/A   Unknown
6:15 AM 19.4 °F 19.4 °F 100% 30.30 in 10.0 mi Calm Calm - N/A   Unknown
6:35 AM 19.4 °F 19.4 °F 100% 30.30 in 10.0 mi Calm Calm - N/A   Unknown
6:55 AM 19.4 °F 19.4 °F 100% 30.30 in 10.0 mi Calm Calm - N/A   Unknown
7:15 AM 17.6 °F 17.6 °F 100% 30.31 in 10.0 mi Calm Calm - N/A   Unknown
7:35 AM 17.6 °F 17.6 °F 100% 30.31 in 10.0 mi Calm Calm - N/A   Unknown
7:55 AM 17.6 °F 17.6 °F 100% 30.31 in 10.0 mi Calm Calm - N/A   Unknown
8:15 AM 17.6 °F 17.6 °F 100% 30.32 in 10.0 mi Calm Calm - N/A   Unknown
8:35 AM 19.4 °F 19.4 °F 100% 30.32 in 10.0 mi Calm Calm - N/A   Unknown
8:55 AM 23.0 °F 23.0 °F 100% 30.33 in 10.0 mi Calm Calm - N/A   Unknown
9:15 AM 24.8 °F 24.8 °F 100% 30.33 in 10.0 mi Calm Calm - N/A   Unknown
9:35 AM 26.6 °F 26.6 °F 100% 30.33 in 10.0 mi Calm Calm - N/A   Unknown
9:55 AM 30.2 °F 28.4 °F 93% 30.34 in 10.0 mi Calm Calm - N/A   Unknown
10:15 AM 32.0 °F 26.6 °F 80% 30.34 in 10.0 mi Calm Calm - N/A   Unknown
10:35 AM 32.0 °F 26.6 °F 80% 30.34 in 10.0 mi Calm Calm - N/A   Unknown
10:55 AM 32.0 °F 24.8 °F 75% 30.33 in 10.0 mi Calm Calm - N/A   Unknown
11:15 AM 32.0 °F 24.8 °F 75% 30.33 in 10.0 mi Calm Calm - N/A   Unknown
11:35 AM 32.0 °F 24.8 °F 75% 30.33 in 10.0 mi Calm Calm - N/A   Unknown
11:55 AM 33.8 °F 23.0 °F 65% 30.32 in 10.0 mi Calm Calm - N/A   Unknown
12:15 PM 35.6 °F 24.8 °F 65% 30.32 in 10.0 mi Calm Calm - N/A   Unknown
12:35 PM 35.6 °F 23.0 °F 60% 30.32 in 10.0 mi Calm Calm - N/A   Unknown
12:55 PM 35.6 °F 23.0 °F 60% 30.32 in 10.0 mi Calm Calm - N/A   Unknown
1:15 PM 35.6 °F 23.0 °F 60% 30.32 in 10.0 mi Calm Calm - N/A   Unknown
1:35 PM 35.6 °F 23.0 °F 60% 30.31 in 10.0 mi Calm Calm - N/A   Unknown
1:55 PM 35.6 °F 23.0 °F 60% 30.31 in 10.0 mi Calm Calm - N/A   Unknown
2:15 PM 35.6 °F 23.0 °F 60% 30.30 in 10.0 mi Calm Calm - N/A   Unknown
2:35 PM 37.4 °F 23.0 °F 56% 30.30 in 10.0 mi Calm Calm - N/A   Unknown
2:55 PM 35.6 °F 23.0 °F 60% 30.30 in 10.0 mi Calm Calm - N/A   Unknown
3:15 PM 35.6 °F 23.0 °F 60% 30.30 in 10.0 mi Calm Calm - N/A   Unknown
3:35 PM 37.4 °F 23.0 °F 56% 30.30 in 10.0 mi Calm Calm - N/A   Unknown
3:55 PM 35.6 °F 23.0 °F 60% 30.30 in 10.0 mi Calm Calm - N/A   Unknown
4:15 PM 32.0 °F 24.8 °F 75% 30.30 in 10.0 mi Calm Calm - N/A   Unknown
4:35 PM 30.2 °F 24.8 °F 80% 30.30 in 10.0 mi Calm Calm - N/A   Unknown
4:55 PM 26.6 °F 24.8 °F 93% 30.31 in 10.0 mi Calm Calm - N/A   Unknown
5:15 PM 26.6 °F 23.0 °F 86% 30.31 in 10.0 mi Calm Calm - N/A   Unknown
5:35 PM 26.6 °F 23.0 °F 86% 30.31 in 10.0 mi Calm Calm - N/A   Unknown
5:55 PM 24.8 °F 23.0 °F 93% 30.31 in 10.0 mi Calm Calm - N/A   Unknown
6:15 PM 26.6 °F 24.8 °F 93% 30.31 in 10.0 mi Calm Calm - N/A   Unknown
6:35 PM 24.8 °F 24.8 °F 100% 30.30 in 10.0 mi Calm Calm - N/A   Unknown
6:55 PM 24.8 °F 23.0 °F 93% 30.31 in 10.0 mi Calm Calm - N/A   Unknown
7:15 PM 23.0 °F 23.0 °F 100% 30.31 in 10.0 mi Calm Calm - N/A   Unknown
7:35 PM 23.0 °F 21.2 °F 93% 30.31 in 10.0 mi Calm Calm - N/A   Unknown
7:55 PM 23.0 °F 21.2 °F 93% 30.31 in 10.0 mi Calm Calm - N/A   Unknown
8:15 PM 23.0 °F 23.0 °F 100% 30.31 in 10.0 mi Calm Calm - N/A   Unknown
8:35 PM 21.2 °F 21.2 °F 100% 30.32 in 10.0 mi Calm Calm - N/A   Unknown
8:55 PM 21.2 °F 21.2 °F 100% 30.32 in 10.0 mi Calm Calm - N/A   Unknown
9:15 PM 21.2 °F 21.2 °F 100% 30.32 in 10.0 mi Calm Calm - N/A   Unknown
9:55 PM 21.2 °F 21.2 °F 100% 30.32 in 10.0 mi Calm Calm - N/A   Unknown
10:15 PM 21.2 °F 21.2 °F 100% 30.32 in 10.0 mi Calm Calm - N/A   Unknown
10:35 PM 19.4 °F 19.4 °F 100% 30.32 in 10.0 mi Calm Calm - N/A   Unknown
10:55 PM 21.2 °F 21.2 °F 100% 30.32 in 10.0 mi Calm Calm - N/A   Unknown
11:15 PM 21.2 °F 21.2 °F 100% 30.32 in 10.0 mi Calm Calm - N/A   Unknown
11:35 PM 19.4 °F 19.4 °F 100% 30.32 in 10.0 mi Calm Calm - N/A   Unknown
11:55 PM 19.4 °F 19.4 °F 100% 30.31 in 10.0 mi Calm Calm - N/A   Unknown